Lexington Weather

Lexington, Massachusetts, USA

70°F
8/17/2022 5:57pm 
  • Lexington Conditions: Overcast
  • Temperature: 70.2°F / 21.2°CColder 0.3°F than last hour.
  • Dew Point: 59.2°FIncreased 1.8°Fsince last hour.
  • Relative Humidity: 68%Increased 5.0% since last hour.
  • Wind: Calm, 10-min avg: Calm, gust: None
  • Barometer: 29.86 inFalling 0.02  inHg/hr Falling Slowly
  • Visibility: 10 miles
  • Rain Today: 0.00 in
  •   

Regional Weather Roundup
for Boston, MA

        
000
ASUS41 KBOX 132310
RWRBOX

REGIONAL WEATHER ROUNDUP
NATIONAL WEATHER SERVICE BOSTON/NORTON MA
700 PM EDT SAT AUG 13 2022

NOTE:  "FAIR" INDICATES FEW OR NO CLOUDS BELOW 12,000 FEET WITH NO 
SIGNIFICANT WEATHER AND/OR OBSTRUCTIONS TO VISIBILITY.

MAZALL-140000-
EASTERN MASSACHUSETTS
  
CITY           SKY/WX    TMP DP  RH WIND       PRES   REMARKS
BOSTON         PTCLDY    66  58  75 SE6       30.05S                  
BEVERLY        PTCLDY    70  53  54 E6        30.04R                  
LAWRENCE       CLOUDY    73  54  51 E5        30.06R                  
BEDFORD        MOCLDY    72  54  53 SE5       30.03S                  
BLUE HILL      NOT AVBL                                               
NORWOOD        CLOUDY    73  53  49 CALM      30.04R                  
MARSHFIELD     CLEAR     68  59  73 CALM      30.05R                  
PLYMOUTH       CLEAR     69  56  62 N7        30.05R                  
TAUNTON          N/A    N/A N/A N/A MISG      30.04R                  
NEW BEDFORD    CLOUDY    71  57  61 NE5       30.03R                  
$$

MAZALL-140000-
CAPE COD AND THE ISLANDS
  
CITY           SKY/WX    TMP DP  RH WIND       PRES   REMARKS
FALMOUTH       CLEAR     66  59  77 N5        30.04R                  
HYANNIS        CLEAR     69  61  75 N7        30.02S                  
CHATHAM        PTCLDY    70  60  70 VRB6      30.04R                  
NANTUCKET      CLEAR     71  63  75 N9        30.03R                  
MARTHAS VNYRD  CLEAR     72  57  59 N10       30.03R                  
$$
 
MAZALL-140000-
CENTRAL AND WESTERN MASSACHUSETTS
  
CITY           SKY/WX    TMP DP  RH WIND       PRES   REMARKS
WORCESTER      CLOUDY    70  50  49 NW6       30.07S                  
FITCHBURG      CLOUDY    73  46  38 N6        30.06R                  
ORANGE         MOCLDY    73  49  42 NW10      30.07S                  
SPRINGFIELD    MOCLDY    73  50  43 NE10      30.03R                  
WESTFIELD      PTCLDY    74  49  41 NW7       30.05R                  
NORTH ADAMS    PTCLDY    70  56  61 CALM      30.07S                  
PITTSFIELD     PTCLDY    71  50  47 CALM      30.08R                  
$$
 
RIZALL-140000-
RHODE ISLAND
  
CITY           SKY/WX    TMP DP  RH WIND       PRES   REMARKS
PROVIDENCE     MOCLDY    74  51  44 NE9       30.04R                  
NEWPORT        CLOUDY    70  56  61 S6        30.04R                  
BLOCK ISLAND   CLEAR     71  55  56 SW6       30.05R                  
SMITHFIELD     CLOUDY    72  52  49 E3        30.06R                  
WESTERLY       MOCLDY    73  58  59 SE7       30.04R                  
$$
 
CTZALL-140000-
CONNECTICUT
  
CITY           SKY/WX    TMP DP  RH WIND       PRES   REMARKS
BRADLEY INTL   PTCLDY    75  51  43 NW6       30.05S                  
HARTFORD       MOCLDY    75  49  39 N8        30.04R                  
BRIDGEPORT     MOCLDY    75  52  44 CALM      30.05R                  
DANBURY        CLEAR     77  48  35 N5        30.07S                  
GROTON         PTCLDY    77  50  38 N9        30.03R                  
NEW HAVEN      CLEAR     78  51  38 N3        30.04F                  
CHESTER        FAIR      75  46  35 N7        30.05S                  
MERIDEN        PTCLDY    74  48  39 N3        30.04S                  
WILLIMANTIC    CLOUDY    75  50  41 VRB5      30.05R                  
OXFORD         MOCLDY    71  51  49 N8        30.08S                  
$$

MEZ002-015-021-024-NHZ003-005-008-011-012-014-VTZ005-008-140000-
NORTHERN NEW ENGLAND
  
CITY           SKY/WX    TMP DP  RH WIND       PRES   REMARKS
PORTLAND ME    MOCLDY    72  53  51 E3        30.04R                  
BANGOR ME      CLOUDY    73  55  53 NW7       30.02S                  
CONCORD NH     CLOUDY    73  50  44 NW9G18    30.05R                  
MANCHESTER NH  MOCLDY    77  47  34 CALM      30.03R                  
NASHUA NH      MOCLDY    74  51  44 NW7       30.05R                  
PORTSMOUTH NH  MOCLDY    69  51  54 E5        30.04S                  
JAFFREY NH     CLOUDY    70  52  52 VRB3      30.09R                  
KEENE NH       CLOUDY    71  55  56 NE3         N/A                   
BURLINGTON VT  PTCLDY    75  47  36 NE7       30.07S                  
MT. WASHINGTON MOCLDY    45  41  87 N14         N/A                   
$$

NYZ052-076-140000-
EASTERN NEW YORK
  
CITY           SKY/WX    TMP DP  RH WIND       PRES   REMARKS
ALBANY         PTCLDY    75  49  39 CALM      30.06S                  
NEW YORK CITY  PTCLDY    78  47  33 E12       30.04S                  
$$
 
ANZALL-140000-
MARINE OBSERVATIONS
  
STATION/POSITION TIME  TEMP    WIND        PRES    VSBY  WAVE
                       AIR SEA DIR/SP/G                  HT/PER
                 (UTC) (F)     (DEG/KT/KT) (MB)    (MI)  (FT/S)
BOSTON BUOY      NOT AVBL
BUZZARDS BAY     NOT AVBL
NANTUCKET SOUND  NOT AVBL
MASS BAY-STELLWA NOT AVBL
ISLE OF SHOALS   NOT AVBL
S OF BLOCK IS    NOT AVBL
$$

......................KEY.........................
  SKY/WX - SKY CONDITION/PRESENT WEATHER
  TMP    - TEMPERATURE IN FAHRENHEIT
  DWPT   - DEWPOINT IN FAHRENHEIT
  RH     - RELATIVE HUMIDITY IN PERCENT
  WIND   - DIRECTION AND SPEED IN MPH
  PRES   - MEAN SEA LEVEL PRESSURE IN INCHES OF HG
  WCI    - WIND CHILL INDEX
  VSB    - VISIBILITY IN MILES
  HX     - HEAT INDEX
  TC     - TEMPERATURE IN CELSIUS
  VRB    - VARIABLE WIND DIRECTION
  N/A    - NOT AVAILABLE
  
      

Other recent Regional Weather Roundups

Wed Aug 17, 5:10pm

Wed Aug 17, 4:10pm

Wed Aug 17, 3:10pm

Wed Aug 17, 2:10pm

Wed Aug 17, 1:10pm

Wed Aug 17, 12:10pm

Wed Aug 17, 11:10am

Wed Aug 17, 10:10am

Wed Aug 17, 9:10am

Wed Aug 17, 8:10am

Wed Aug 17, 7:10am

Wed Aug 17, 6:10am

Wed Aug 17, 5:10am

Wed Aug 17, 4:10am

Wed Aug 17, 3:10am

Wed Aug 17, 2:10am

Wed Aug 17, 1:10am

Wed Aug 17, 12:10am

Tue Aug 16, 11:10pm

Tue Aug 16, 10:10pm

Tue Aug 16, 9:10pm

Tue Aug 16, 8:10pm

Tue Aug 16, 7:10pm

Tue Aug 16, 6:10pm

Tue Aug 16, 5:10pm

Tue Aug 16, 4:10pm

Tue Aug 16, 3:10pm

Tue Aug 16, 2:10pm

Tue Aug 16, 1:10pm

Tue Aug 16, 12:10pm

Tue Aug 16, 11:10am

Tue Aug 16, 10:10am

Tue Aug 16, 9:10am

Tue Aug 16, 8:10am

Tue Aug 16, 7:10am

Tue Aug 16, 6:10am

Tue Aug 16, 5:10am

Tue Aug 16, 4:10am

Tue Aug 16, 3:10am

Tue Aug 16, 2:10am

Tue Aug 16, 1:10am

Tue Aug 16, 12:10am

Mon Aug 15, 11:10pm

Mon Aug 15, 10:10pm

Mon Aug 15, 9:10pm

Mon Aug 15, 8:10pm

Mon Aug 15, 7:10pm

Mon Aug 15, 6:10pm

Mon Aug 15, 5:10pm

Mon Aug 15, 4:10pm

Mon Aug 15, 3:10pm

Mon Aug 15, 2:10pm

Mon Aug 15, 1:10pm

Mon Aug 15, 12:10pm

Mon Aug 15, 11:10am

Mon Aug 15, 10:10am

Mon Aug 15, 9:10am

Mon Aug 15, 8:10am

Mon Aug 15, 7:10am

Mon Aug 15, 6:10am

Mon Aug 15, 5:10am

Mon Aug 15, 4:10am

Mon Aug 15, 3:10am

Mon Aug 15, 2:10am

Mon Aug 15, 1:10am

Mon Aug 15, 12:10am

Sun Aug 14, 11:10pm

Sun Aug 14, 10:10pm

Sun Aug 14, 9:10pm

Sun Aug 14, 8:10pm

Sun Aug 14, 7:10pm

Sun Aug 14, 6:10pm

Sun Aug 14, 5:10pm

Sun Aug 14, 4:10pm

Sun Aug 14, 3:10pm

Sun Aug 14, 2:10pm

Sun Aug 14, 1:10pm

Sun Aug 14, 12:10pm

Sun Aug 14, 11:10am

Sun Aug 14, 10:10am

Sun Aug 14, 9:10am

Sun Aug 14, 8:10am

Sun Aug 14, 7:10am

Sun Aug 14, 6:10am

Sun Aug 14, 5:10am

Sun Aug 14, 4:10am

Sun Aug 14, 3:10am

Sun Aug 14, 2:10am

Sun Aug 14, 1:10am

Sun Aug 14, 12:10am

Sat Aug 13, 11:10pm

Sat Aug 13, 10:10pm

Sat Aug 13, 9:10pm

Sat Aug 13, 8:10pm

Sat Aug 13, 6:10pm

Sat Aug 13, 5:10pm

Sat Aug 13, 4:10pm

Sat Aug 13, 3:10pm

Sat Aug 13, 2:10pm

Sat Aug 13, 1:10pm

Sat Aug 13, 12:10pm

Sat Aug 13, 11:10am

Sat Aug 13, 10:10am

Sat Aug 13, 9:10am

Sat Aug 13, 8:10am

Sat Aug 13, 7:10am

Sat Aug 13, 6:10am

Sat Aug 13, 5:10am

Sat Aug 13, 4:10am

Sat Aug 13, 3:10am

Sat Aug 13, 2:10am

Sat Aug 13, 1:10am

Sat Aug 13, 12:10am

Fri Aug 12, 11:10pm

Fri Aug 12, 10:10pm

Fri Aug 12, 9:10pm

Fri Aug 12, 8:10pm

Fri Aug 12, 7:10pm

Fri Aug 12, 6:10pm

Fri Aug 12, 5:10pm

Fri Aug 12, 4:10pm

Fri Aug 12, 3:10pm

Fri Aug 12, 2:10pm

Fri Aug 12, 1:10pm

Fri Aug 12, 12:10pm

Fri Aug 12, 11:10am

Fri Aug 12, 10:10am

Fri Aug 12, 9:10am

Fri Aug 12, 8:10am

Fri Aug 12, 7:10am

Fri Aug 12, 6:10am

Fri Aug 12, 5:10am

Fri Aug 12, 4:10am

Fri Aug 12, 3:10am

Fri Aug 12, 2:10am

Fri Aug 12, 1:10am

Fri Aug 12, 12:10am

Thu Aug 11, 11:10pm

Thu Aug 11, 10:10pm

Thu Aug 11, 9:10pm

Thu Aug 11, 8:10pm

Thu Aug 11, 7:10pm

Thu Aug 11, 6:10pm

Thu Aug 11, 5:10pm

Thu Aug 11, 4:10pm

Thu Aug 11, 3:10pm

Thu Aug 11, 2:10pm

Thu Aug 11, 1:10pm

Thu Aug 11, 12:10pm

Thu Aug 11, 11:10am

Thu Aug 11, 10:10am

Thu Aug 11, 9:10am

Thu Aug 11, 8:10am

Thu Aug 11, 7:10am

Thu Aug 11, 6:10am

Thu Aug 11, 5:10am

Thu Aug 11, 4:10am

Thu Aug 11, 3:10am

Thu Aug 11, 2:10am

Thu Aug 11, 1:10am

Thu Aug 11, 12:10am

Wed Aug 10, 11:10pm

Wed Aug 10, 10:10pm

Wed Aug 10, 9:10pm

Wed Aug 10, 8:10pm

Wed Aug 10, 7:10pm

Wed Aug 10, 6:10pm

Meta data:

ID: c2d6fbf3-6d61-44a1-97f8-db50208b045c
Link: https://api.weather.gov/products/c2d6fbf3-6d61-44a1-97f8-db50208b045c